Regional Weather Roundup
Issued by NWS Sterling, VA

Home | Current Version | Previous Version | Text Only | Print | Product List | Glossary Off
Versions: 1 2 3 4 5 6 7 8 9 10 11 12 13 14 15 16 17 18 19 20 21 22 23 24 25 26 27 28 29 30 31 32 33 34 35 36 37 38 39 40 41 42 43 44 45 46 47 48 49

000
ASUS41 KLWX 051010
RWRLWX

REGIONAL WEATHER ROUNDUP
NATIONAL WEATHER SERVICE BALTIMORE MD/WASHINGTON DC
500 AM EST THU MAR 05 2015

Note: "FAIR" indicates few or no clouds below 12,000 feet
with no significant weather and/or obstructions to visibility.
 TC=TEMPERATURE CELSIUS

 * =Non NWS site. Station does not report precipitation (e.g. rain,
    snow, etc.), thunder, or fog.

DCZ001-MDZ009-015-VAZ040>042-051-053>054-051100-
WASHINGTON METRO

CITY           SKY/WX    TMP DP  RH WIND       PRES   REMARKS
WASHINGTON NAT LGT RAIN  40  35  83 NW9       30.03R
DULLES         CLOUDY    36  32  85 N13       30.02R WCI  27
ANDREWS AFB    DRIZZLE   37  36  96 N14       30.00R WCI  28
FT BELVOIR     LGT RAIN  37  34  87 NW7       30.04R
QUANTICO       LGT RAIN  38  34  85 NE10      30.03R
COLLEGE PARK*  MOCLDY    37  36  93 CALM      30.02R
LEESBURG*      CLOUDY    36  34  93 N18G25    30.04R WCI  25
MANASSAS*      CLOUDY    37  37 100 N12       30.02R
GAITHERSBURG*  CLOUDY    34  30  86 NW6       30.04R

$$

MDZ006>007-011-014-051100-
BALTIMORE METRO

CITY           SKY/WX    TMP DP  RH WIND       PRES   REMARKS
BWI AIRPORT    LGT RAIN  36  33  89 N7        30.00R
MD SCIENCE CTR   N/A     37  32  82 MISG      30.01R
MARTIN STATE   RAIN      36  34  93 NW8       30.04R
ANNAPOLIS      MIX PCPN  37  34  89 N10       30.02R
FORT MEADE*    MOCLDY    36  34  93 N5        30.04R

$$

MDZ012-015-019>023-051100-
MARYLAND EASTERN SHORE

CITY           SKY/WX    TMP DP  RH WIND       PRES   REMARKS
OCEAN CITY     LGT RAIN  39  38  96 N10       29.98R FOG
SALISBURY      LGT RAIN  42  38  85 N9        29.98R FOG
BAY BRIDGE AP*   N/A     34  34 100 N8        30.02S WCI  27
CAMBRIDGE*     CLOUDY    37  36  93 N12G22    29.99S
EASTON*        DRIZZLE   39  39 100 N12       30.05R

$$

MDZ017>025-051100-
SOUTHERN MARYLAND

CITY           SKY/WX    TMP DP  RH WIND       PRES   REMARKS
PATUXENT RIVER LGT RAIN  39  37  92 N16       30.00R FOG
ST INIGOES     LGT RAIN  40  37  89 N6G17     29.99R FOG
LEONARDTOWN*   CLOUDY    37  36  93 N5        30.02R

$$

MDZ003>005-051100-
NORTH CENTRAL MARYLAND

CITY           SKY/WX    TMP DP  RH WIND       PRES   REMARKS
FREDERICK*     RAIN      36  32  87 NW7       30.07R
HAGERSTOWN APT LGT SNOW  33  28  81 N13       30.03R WCI  24
WESTMINSTER*   MIX PCPN  34  30  86 NW5       30.02R

$$

MDZ501>502-051100-
WESTERN MARYLAND

CITY           SKY/WX    TMP DP  RH WIND       PRES   REMARKS
OAKLAND*         N/A     19 N/A N/A NW8       29.97R FOG     WCI   9
CUMBERLAND*    MOCLDY    32  27  80 N10G17    30.11R WCI  24

$$

VAZ025>031-051100-
SHENANDOAH VALLEY

CITY           SKY/WX    TMP DP  RH WIND       PRES   REMARKS
WINCHESTER*    RAIN      34  30  86 NW7       30.03R
FRONT ROYAL*   CLOUDY    34  32  93 N5        30.01R
LURAY*         CLOUDY    37  37 100 CALM      30.01R
NEW MARKET*    CLOUDY    35  33  91 N5        30.00R
STAUNTON*      CLOUDY    37  36  96 N14       29.97R WCI  28
WAYNESBORO*    CLOUDY    37  36  96 N9        29.94R

$$

WVZ021-048>050-054>055-051100-
EASTERN WEST VIRGINIA PANHANDLE

CITY           SKY/WX    TMP DP  RH WIND       PRES   REMARKS
MARTINSBURG    LGT SNOW  35  30  82 N7        30.03R
PETERSBURG*    NOT AVBL

$$

VAZ036>039-050-051100-
CENTRAL FOOTHILLS

CITY           SKY/WX    TMP DP  RH WIND       PRES   REMARKS
CHARLOTTESVILL CLOUDY    40  38  93 NE9       29.95R
CULPEPER*      DRIZZLE   37  37 100 N7        30.02R
ORANGE*        DRIZZLE   37  37 100 N9        29.99R
GORDONSVILLE*  CLOUDY    37  36  96 NE8       29.97R
WARRENTON*     LGT RAIN  37  37 100 N8        30.02R

$$

VAZ055>057-051100-
NORTH AND CENTRAL PIEDMONT

CITY           SKY/WX    TMP DP  RH WIND       PRES   REMARKS
FREDERICKSBRG* RAIN      39  39 100 N8        30.01R
STAFFORD*      DRIZZLE   37  32  82 N7        30.05R

$$

NCZ024-NYZ072-PAZ021-071-VAZ022-071-051100-
OTHER REGIONAL OBSERVATIONS

CITY           SKY/WX    TMP DP  RH WIND       PRES   REMARKS
NEW YORK CITY  LGT SNOW  32  29  88 VRB6      30.00R FOG
PHILADELPHIA   LGT RAIN  36  32  85 NW10      30.02R FOG     WCI  28
PITTSBURGH     LGT SNOW  19  15  84 N12       30.16R VSB 1   WCI   7
ROANOKE        CLOUDY    43  40  89 N7        29.94R
RICHMOND       LGT RAIN  42  39  89 NE18      29.98R FOG
RALEIGH        MOCLDY    64  58  80 SW10      29.86S

$$

ANZ530>537-051100-
MARINE OBSERVATIONS

STATION/POSITION TIME  TEMP    WIND        PRES
                       AIR SEA DIR/SP/G
                 (UTC) (F)     (DEG/KT/KT) (MB)
THOMAS PT LIGHT  1000   36 32   10/ 11/ 13 1017.2R
BALT KEY BRIDGE  0900   38     340/  6/  8 1015.8R
COVE POINT       0900   35      30/ 11/ 12 1014.3R
LEWISETTA        0900   40 34   20/  3/  7 1014.2R
SOLOMONS ISLAND  0900      33                N/A

$$



USA.gov is the U.S. government's official web portal to all federal, state and local government web resources and services.